{"data":{"norad_id":66111,"intl_designator":"2025-236AB","name":"STARLINK-35574","alt_names":[],"object_type":"PAYLOAD","status":"ACTIVE","operator":null,"country":"US","launch_date":"2025-10-19","launch_site_code":"AFWTR","launch_vehicle":null,"mission":null,"orbit_class":"UNKNOWN","rcs_meters":null,"size_class":null,"mass_kg":null,"dimensions":null,"purposes":["comms"],"wikipedia_slug":null,"has_3d_model":false,"image_url":null,"decayed_at":null,"tle_current":{"epoch":"2026-09-20T07:18:15.223968Z","epoch_age_seconds":117323,"freshness":"FRESH","line1":"1 66111U 25236AB  26263.30434287  .00009838  00000+0  30188-3 0  9993","line2":"2 66111  53.1586 278.3017 0001438  81.3765 278.7401 15.34402850 52704","mean_motion":15.3440285,"eccentricity":0.0001438,"inclination_deg":53.1586,"raan_deg":278.3017,"arg_perigee_deg":81.3765,"mean_anomaly_deg":278.7401,"bstar":0.00030188,"rev_number":5270,"period_min":93.8475837685,"perigee_km":461.71105781116,"apogee_km":463.67848102805,"semimajor_km":6840.8317694196,"source":"CELESTRAK","updated_at":"2026-09-21T09:00:35.805526Z"}}}